Wind_Speed
16 15 15 16 16 16 15 14 13 14 14 14 14 15 15 15 15 13 11 9 8 8 7 5 5 5 5 6 7 9 10 11 11 11 11 12 12 13 13 13 13 13
17 16 16 17 17 17 16 16 16 15 15 16 16 16 17 17 16 13 11 11 10 9 7 6 5 5 5 6 8 9 10 10 10 11 11 12 12 13 14 15 15 15
18 17 17 18 18 18 19 19 18 17 17 17 17 17 18 18 17 14 12 12 11 10 8 7 6 5 6 7 8 9 9 9 10 10 11 12 13 14 15 16 16 17
20 19 19 19 20 21 21 20 20 19 18 18 18 19 20 19 17 15 14 14 12 11 9 8 7 6 6 7 9 9 9 9 9 10 12 13 14 14 15 15 16 17
22 21 21 21 22 22 22 21 21 21 20 20 20 21 21 19 18 16 16 15 13 12 10 9 8 7 7 8 9 8 8 9 10 11 11 13 13 13 14 15 16 16
23 23 23 23 23 23 22 21 22 22 22 22 22 22 22 20 18 17 18 16 14 13 12 11 9 9 9 8 8 8 8 9 10 10 10 12 12 12 14 15 17 17
23 24 24 25 25 24 23 23 23 23 23 24 23 23 22 20 18 18 19 17 15 14 13 12 11 11 10 9 9 9 9 10 10 10 10 11 11 12 14 16 17 17
22 24 25 26 26 25 24 24 25 25 25 25 24 23 23 21 19 20 20 18 17 16 15 14 13 12 12 10 9 9 9 10 10 10 10 11 11 12 14 16 16 17
21 22 24 24 25 25 25 25 26 26 27 26 25 24 23 21 20 21 20 19 18 17 16 15 14 14 13 11 9 9 10 10 10 10 11 13 13 12 13 15 16 17
18 19 20 21 22 24 24 25 26 27 27 26 25 24 22 21 22 22 21 19 19 19 18 17 16 15 15 12 10 9 9 9 10 11 13 14 14 13 13 16 18 18
15 16 17 18 20 21 23 25 26 26 26 24 24 22 21 21 22 22 21 20 20 21 20 19 18 17 16 14 11 10 9 9 10 12 14 16 15 14 15 17 19 19
13 14 15 16 18 19 20 22 23 24 23 22 22 22 21 22 22 23 21 20 22 23 22 20 19 18 18 16 13 11 10 10 11 13 15 17 17 18 20 21 21 20
11 11 13 14 16 17 18 19 20 20 20 20 21 21 21 22 22 23 22 22 24 24 23 21 20 19 19 18 16 13 12 12 13 14 16 18 19 21 23 23 22 20
10 10 10 12 13 14 15 16 18 18 18 19 19 20 21 22 23 23 23 24 25 25 24 22 21 20 20 20 18 16 16 15 14 15 17 19 21 24 25 23 21 20
11 11 11 12 13 13 13 14 15 17 18 18 18 19 21 23 24 24 25 25 25 26 24 22 22 21 21 21 20 19 19 18 16 16 17 20 23 25 26 24 23 23
13 13 14 14 14 15 15 15 14 15 17 18 18 19 21 23 25 26 26 25 26 26 25 23 23 22 22 23 22 22 22 22 20 18 17 19 23 27 29 28 27 27
16 16 16 16 16 17 17 18 17 17 16 16 18 20 22 24 25 26 26 26 26 27 26 24 24 23 24 24 23 24 25 24 24 23 21 21 24 29 31 31 30 30
19 19 19 19 19 19 19 20 21 20 18 17 17 19 21 24 25 26 26 26 27 27 26 25 25 25 26 25 24 25 27 27 27 27 25 24 27 31 34 35 32 30
22 23 23 22 22 22 22 23 23 22 20 20 19 19 20 21 23 24 25 25 27 27 26 26 27 27 27 26 25 27 29 29 29 29 28 27 30 33 36 37 33 28
23 25 25 25 25 25 25 25 24 23 23 23 22 22 22 21 22 23 24 24 26 27 27 28 29 29 28 27 27 28 31 32 31 30 28 29 31 33 36 37 32 30
26 26 26 27 27 28 28 27 27 26 25 25 25 25 25 23 23 23 23 24 25 27 29 30 31 31 30 28 28 30 32 33 33 31 29 30 32 33 36 36 32 30
25 26 26 26 28 30 30 29 29 29 28 28 27 28 28 27 26 25 24 25 26 28 29 30 32 33 32 31 31 32 33 34 35 33 30 30 32 34 37 35 32 31
25 25 25 26 28 30 31 31 31 31 31 31 30 30 30 30 29 28 27 26 27 29 29 30 33 34 34 34 34 34 34 35 36 36 32 30 32 35 38 36 33 34
27 27 28 28 30 31 33 34 34 34 34 34 34 33 32 31 32 32 31 30 30 30 30 32 34 35 37 37 37 37 36 36 38 38 35 32 32 35 38 37 35 35
31 32 32 32 33 34 36 36 36 36 36 37 37 36 34 34 34 34 34 33 33 32 33 34 36 37 38 40 40 39 38 38 39 39 38 35 34 37 39 37 35 35
35 36 36 36 36 38 38 38 38 38 39 40 40 39 39 38 37 37 37 36 36 36 36 36 38 39 40 42 43 42 40 40 40 40 39 38 39 40 39 36 35 36
Wind_Direction
230 229 227 230 234 238 243 246 246 249 255 261 264 269 277 281 279 273 257 239 236 246 257 267 280 301 317 326 331 329 329 332 336 338 344 348 348 346 346 347 348 348
233 232 231 233 236 238 242 243 244 247 252 259 264 272 279 279 276 268 246 230 232 239 246 258 272 291 308 318 320 320 323 331 339 341 342 343 344 344 343 343 344 343
237 236 235 236 238 239 240 242 244 246 251 260 265 270 275 276 275 265 239 227 230 234 239 251 264 281 299 309 311 314 323 332 339 340 340 341 343 344 342 341 341 340
241 240 237 237 239 241 243 245 249 251 254 259 262 265 271 274 274 260 236 227 231 232 235 246 257 272 289 298 303 312 324 332 337 340 341 341 343 345 343 340 339 338
241 242 240 240 242 244 245 246 249 252 254 257 259 263 269 271 269 255 236 230 233 232 234 241 251 265 278 285 295 311 325 332 339 345 346 345 344 346 348 347 345 343
245 245 244 244 245 247 248 248 249 251 255 257 259 262 266 267 263 250 236 234 236 235 235 239 247 260 267 273 288 308 325 335 342 348 350 347 346 350 354 354 352 349
247 246 246 246 246 248 248 248 250 253 255 257 258 262 265 264 258 244 235 237 239 237 236 238 247 257 261 268 287 305 324 338 345 349 347 343 344 350 353 351 350 350
245 245 245 246 247 248 249 249 251 253 253 254 256 260 261 259 252 240 234 238 242 240 238 240 249 258 260 268 287 305 324 339 345 344 337 332 333 343 349 349 348 347
246 246 244 245 246 247 248 249 250 250 251 253 255 257 256 254 248 237 234 239 244 242 239 243 251 258 260 268 286 305 325 339 342 338 330 326 326 334 344 347 344 343
249 249 248 247 245 246 246 247 248 250 252 254 254 253 251 248 243 236 236 241 246 245 241 244 252 257 260 268 284 304 324 338 341 338 334 332 331 334 340 342 341 340
250 250 248 247 245 245 246 246 248 250 251 252 251 250 246 242 239 237 238 243 246 245 243 246 253 258 260 268 280 296 315 331 338 339 340 341 339 334 331 332 333 331
253 250 247 245 243 244 245 247 249 251 252 251 249 248 243 240 237 237 240 244 245 245 244 248 255 258 261 269 278 289 305 318 328 333 339 343 339 329 323 321 321 318
258 252 250 248 247 247 247 250 252 254 255 252 249 247 244 242 239 238 242 245 246 247 246 249 255 257 262 272 279 287 300 310 319 327 334 340 337 329 322 318 314 310
265 260 260 258 257 258 258 258 256 256 257 254 250 248 247 246 243 241 244 248 248 248 248 250 255 258 264 275 283 292 300 305 313 323 330 333 331 328 325 320 313 308
270 270 270 267 267 272 276 275 268 259 256 255 252 250 250 249 248 247 250 252 252 251 250 253 256 259 266 277 286 294 300 305 311 320 326 326 323 322 323 320 313 308
271 274 273 273 274 274 278 284 283 273 264 258 254 251 251 251 251 253 255 256 254 253 252 254 256 259 268 279 287 293 298 303 308 313 320 321 317 316 318 317 313 310
270 274 274 277 278 275 276 279 281 281 278 270 261 254 252 252 253 256 259 258 256 254 254 255 255 260 269 278 286 292 296 302 305 308 314 316 315 315 315 315 314 312
265 270 272 276 278 277 276 274 273 278 283 284 277 265 258 257 258 259 259 258 256 256 256 256 255 259 267 276 284 289 293 298 301 305 310 314 317 316 312 313 315 316
259 263 267 271 274 276 274 271 272 276 279 281 281 276 272 270 267 264 261 258 257 258 259 258 257 258 265 275 281 286 291 295 298 303 308 315 320 316 311 313 313 313
256 259 262 265 268 269 269 270 272 274 275 275 277 279 281 280 275 271 267 262 259 260 261 259 258 259 265 273 278 282 288 291 295 301 308 314 316 314 313 314 311 310
254 256 258 260 262 264 265 267 269 271 272 273 276 278 279 278 276 275 273 268 262 260 260 260 259 260 265 271 275 279 284 289 294 299 305 309 309 309 310 310 308 311
250 252 254 256 258 260 263 265 266 268 269 270 271 273 274 275 277 277 277 274 268 263 261 261 260 261 264 269 271 276 281 287 292 296 300 305 307 307 307 305 306 313
250 252 254 255 256 259 263 265 265 265 265 266 267 268 269 271 274 275 275 273 270 267 265 262 260 259 262 265 268 273 279 284 288 291 295 301 305 306 305 304 307 314
248 251 252 253 255 259 262 264 263 263 264 264 265 265 264 264 265 267 270 271 272 270 266 262 259 258 259 262 266 270 275 280 284 287 292 297 301 302 302 303 308 314
250 252 253 253 255 257 259 261 261 261 261 262 263 263 262 261 260 261 265 269 271 271 268 263 259 257 257 259 263 267 271 276 280 283 288 293 295 296 297 301 308 312
260 260 262 263 263 264 263 262 260 258 257 258 260 261 260 259 258 258 260 264 267 269 268 265 261 259 257 257 259 263 267 272 276 280 284 288 291 294 297 301 304 305
Height
5912 5913 5914 5915 5915 5916 5916 5917 5919 5920 5920 5920 5921 5921 5921 5921 5921 5921 5921 5922 5922 5922 5922 5922 5921 5921 5920 5920 5919 5918 5918 5917 5916 5916 5915 5914 5913 5912 5911 5910 5909 5908
5911 5912 5913 5913 5914 5915 5915 5916 5917 5918 5919 5919 5919 5920 5920 5920 5920 5920 5920 5920 5920 5921 5920 5920 5920 5920 5919 5919 5918 5917 5917 5916 5916 5915 5914 5913 5912 5911 5910 5909 5908 5907
5909 5910 5911 5912 5913 5913 5913 5914 5915 5916 5917 5917 5918 5918 5918 5918 5918 5919 5919 5919 5919 5919 5919 5919 5919 5919 5918 5917 5917 5916 5916 5916 5916 5915 5914 5913 5912 5911 5910 5909 5908 5907
5907 5908 5909 5910 5910 5911 5912 5912 5913 5914 5915 5915 5916 5916 5916 5916 5917 5917 5917 5918 5918 5917 5917 5917 5918 5917 5917 5916 5916 5915 5915 5915 5915 5914 5913 5912 5911 5910 5909 5908 5907 5906
5905 5906 5907 5908 5908 5909 5910 5911 5912 5912 5913 5913 5913 5914 5914 5915 5915 5915 5916 5916 5916 5916 5916 5916 5916 5916 5915 5915 5915 5915 5915 5915 5914 5914 5913 5912 5910 5909 5908 5907 5905 5904
5903 5904 5905 5906 5906 5907 5908 5909 5909 5910 5910 5911 5911 5911 5912 5913 5913 5914 5914 5915 5915 5915 5914 5914 5915 5914 5914 5914 5914 5914 5914 5914 5914 5913 5912 5911 5909 5908 5906 5905 5904 5903
5900 5902 5903 5903 5904 5905 5906 5907 5907 5907 5908 5908 5908 5909 5910 5910 5911 5912 5912 5913 5914 5914 5913 5913 5913 5913 5913 5913 5913 5912 5913 5913 5913 5912 5911 5909 5908 5906 5905 5904 5903 5902
5897 5898 5899 5901 5902 5903 5904 5904 5904 5905 5905 5905 5906 5907 5907 5908 5908 5909 5911 5911 5912 5912 5912 5912 5911 5911 5911 5911 5911 5911 5911 5911 5911 5910 5909 5907 5906 5905 5904 5903 5901 5900
5894 5895 5896 5898 5899 5900 5901 5901 5901 5901 5901 5902 5903 5904 5904 5905 5906 5907 5909 5910 5910 5911 5911 5910 5910 5910 5910 5910 5910 5910 5910 5909 5909 5908 5907 5905 5904 5903 5902 5901 5900 5899
5892 5893 5893 5895 5896 5897 5897 5898 5898 5898 5898 5899 5900 5901 5902 5903 5903 5905 5907 5908 5909 5909 5909 5909 5909 5909 5909 5909 5909 5909 5908 5908 5907 5906 5905 5903 5902 5901 5900 5899 5898 5897
5890 5890 5891 5892 5893 5894 5894 5894 5895 5895 5896 5897 5897 5898 5899 5900 5901 5903 5905 5906 5906 5907 5907 5907 5907 5907 5907 5908 5908 5907 5906 5906 5905 5904 5903 5902 5901 5900 5898 5897 5896 5895
5888 5888 5889 5890 5890 5891 5891 5892 5892 5892 5893 5894 5895 5896 5897 5898 5899 5901 5902 5904 5904 5904 5905 5905 5905 5906 5906 5906 5906 5906 5905 5903 5903 5902 5901 5900 5899 5898 5896 5895 5894 5893
5886 5886 5887 5887 5888 5888 5889 5889 5890 5891 5891 5892 5893 5893 5894 5896 5897 5899 5900 5901 5901 5901 5902 5903 5903 5904 5904 5904 5904 5904 5902 5901 5901 5900 5899 5898 5897 5895 5893 5892 5891 5890
5884 5884 5885 5885 5886 5886 5887 5888 5888 5889 5890 5890 5891 5892 5893 5894 5895 5896 5897 5898 5898 5899 5900 5900 5901 5902 5902 5901 5901 5900 5900 5899 5899 5898 5896 5895 5893 5892 5890 5889 5888 5888
5882 5882 5883 5884 5884 5885 5885 5886 5886 5887 5888 5888 5889 5891 5891 5892 5893 5894 5895 5895 5896 5896 5897 5898 5899 5899 5899 5898 5898 5897 5896 5896 5896 5896 5894 5892 5890 5888 5887 5887 5886 5885
5880 5881 5882 5882 5883 5883 5884 5884 5884 5885 5886 5886 5887 5888 5889 5890 5891 5891 5892 5893 5893 5894 5894 5895 5896 5896 5896 5895 5894 5894 5893 5892 5893 5892 5892 5890 5887 5885 5884 5884 5883 5882
5878 5879 5880 5880 5881 5882 5882 5882 5883 5883 5884 5885 5885 5886 5887 5887 5888 5889 5890 5890 5890 5891 5891 5892 5893 5893 5893 5892 5891 5890 5889 5889 5889 5888 5888 5887 5885 5883 5882 5881 5880 5879
5876 5876 5877 5878 5879 5880 5880 5880 5881 5881 5882 5882 5883 5884 5884 5885 5885 5886 5887 5887 5887 5888 5888 5889 5890 5890 5890 5889 5888 5887 5885 5885 5884 5884 5884 5884 5883 5881 5879 5878 5877 5876
5874 5874 5875 5876 5877 5877 5877 5878 5878 5879 5879 5880 5881 5881 5881 5881 5882 5883 5883 5884 5884 5885 5885 5886 5887 5887 5886 5886 5885 5883 5881 5880 5880 5880 5881 5880 5880 5879 5877 5875 5874 5873
5871 5872 5873 5874 5874 5874 5874 5875 5875 5876 5877 5877 5878 5878 5878 5879 5879 5879 5880 5881 5881 5882 5882 5883 5883 5883 5882 5882 5881 5880 5877 5876 5876 5877 5877 5877 5876 5876 5874 5872 5871 5870
5868 5869 5870 5871 5871 5871 5871 5872 5873 5873 5874 5874 5874 5875 5875 5876 5876 5876 5877 5877 5878 5878 5878 5879 5879 5879 5879 5878 5877 5876 5873 5872 5872 5874 5874 5873 5873 5872 5871 5870 5869 5868
5865 5866 5867 5868 5868 5868 5868 5869 5869 5870 5871 5871 5871 5871 5872 5872 5872 5873 5873 5873 5874 5874 5874 5875 5875 5875 5874 5874 5873 5872 5870 5868 5868 5869 5870 5869 5869 5869 5868 5867 5866 5865
5862 5863 5863 5864 5864 5864 5865 5865 5866 5867 5867 5867 5867 5868 5868 5869 5869 5869 5870 5870 5869 5869 5870 5870 5870 5870 5870 5870 5869 5868 5866 5865 5864 5864 5866 5867 5866 5865 5864 5863 5862 5861
5858 5858 5859 5860 5860 5860 5861 5861 5862 5862 5862 5862 5863 5864 5865 5865 5866 5866 5866 5866 5865 5865 5866 5866 5865 5865 5865 5865 5864 5864 5862 5861 5859 5859 5861 5863 5863 5863 5861 5859 5858 5857
5853 5854 5854 5855 5856 5856 5856 5856 5857 5858 5858 5858 5858 5859 5860 5861 5861 5862 5862 5862 5861 5861 5861 5860 5860 5860 5861 5860 5860 5859 5858 5857 5855 5855 5856 5857 5858 5859 5857 5855 5854 5853
5848 5848 5849 5850 5851 5851 5851 5851 5851 5852 5852 5853 5853 5854 5855 5855 5856 5857 5857 5858 5857 5857 5856 5855 5855 5855 5856 5856 5855 5855 5854 5853 5851 5851 5852 5852 5852 5853 5852 5851 5849 5849